CZ-3C DEB, 42467

Orbit data source: Space-Track

CZ-3C DEB, 42467 is space debris in HEO originally from a launch on Sun, 31 Oct 2010 UTC launched from the Xichang Space Center, China (XSC). Debris objects in space refer to the collection of defunct objects orbiting the Earth. Examples of debris include non-operational satellites, rocket bodies, and fragments generated from explosions, collisions, or faulty payload assembly.

Loading next visibility...
Identifier
42467, 2010-057BG
Orbit
HEO
Country
Flag of CNCN / PRC
Related business
Manufacturer
CALT
Mission
Spacecraft
Bus & Motor
Unknown
Mass
Unknown
Launch date (UTC)
2010-10-31 (16 years ago)
Launch vehicle
Unknown
Launch site
Xichang Space Center, China (XSC)
Object type
Payload
Rocket body
Debris
Shape & HBR
Unknown shape, 0.2 m
Radar Cross Section
Medium (>0.1 m² and <1 m²)

Expand to show TLE details & history
Last TLE update: 5 days ago

TLE from 5 days ago
0 CZ-3C DEB
1 42467U 10057BG  26167.14786659  .00013495  00000-0  68226-2 0  9992
2 42467  20.1381  70.7960 4475150  49.7920 341.5677  6.37775769241081
Epoch: 2026-06-16T03:32Z
TLE epoch observation values (Epoch: 2026-06-16T03:32:55.673Z)
Latitude
-0.00007°
Longitude
113.13753°
Altitude
1,236.824 km
Speed
8.499 km/s
True Right ascension
04h 43m 10s
True Declination
0° 00' 00"
Sunlit
Object was in daylight at epoch
Visualization orbit readout
Latitude
Unknown
Longitude
Unknown
Altitude
Unknown
Speed
Unknown
Apparent Right ascension
Unknown
Apparent Declination
Unknown
Sunlit
N/A
Visualization observer readout
Local Sidereal Time
11:43:30
Azimuth
Unknown
Elevation
Unknown
Doppler factor
Unknown
Orbital elements
Apogee altitude
11,407.071 km
Perigee altitude
410.09 km
Semi-major axis
12,286.717 km
Eccentricity
0.44752
Inclination
20.1381°
RAAN
70.796°
Arg. of periapsis
49.792°
True anomaly
310.15832°
Mean anomaly
341.5677°
Eccentric anomaly
327.96807°
Mean motion
1.59364 °/min
Orbital period
225.9 mins
BSTAR
0.0068226
Loading maneuver chart data...
Computing Atmospheric mass density...
Loading historical data...
Loading historical data...
Loading historical data...
Loading historical data...
Loading historical data...
Loading historical data...
Loading historical data...

Documentation

Showing up to 5 results
|